• In Belarus
  • List of Countries
  • For 7 days
  • Water Temperature
  • Satellite Maps
  • Weather Map
  • Weather Widgets
  • user-avatar
    Login

    Hourly Weather Natitingou

    Today, 18 January, Friday

    Time Temperature Precipitation Wind Pressure Humidity
    00:00 +28°C° 0 mm 2 mps 717 mmHg 13%
    01:00 +28°C° 0 mm 2 mps 717 mmHg 13%
    02:00 +27°C° 0 mm 2 mps 716 mmHg 13%
    03:00 +27°C° 0 mm 2 mps 716 mmHg 13%
    04:00 +26°C° 0 mm 2 mps 716 mmHg 14%
    05:00 +26°C° 0 mm 2 mps 717 mmHg 14%
    06:00 +25°C° 0 mm 2 mps 717 mmHg 14%
    07:00 +27°C° 0 mm 2 mps 717 mmHg 15%
    08:00 +30°C° 0 mm 2 mps 718 mmHg 16%
    09:00 +33°C° 0 mm 3 mps 719 mmHg 16%
    10:00 +35°C° 0 mm 3 mps 718 mmHg 17%
    11:00 +36°C° 0 mm 3 mps 718 mmHg 17%
    12:00 +38°C° 0 mm 3 mps 718 mmHg 18%
    13:00 +39°C° 0 mm 2 mps 717 mmHg 17%
    14:00 +39°C° 0 mm 2 mps 717 mmHg 16%
    15:00 +40°C° 0 mm 2 mps 716 mmHg 15%
    16:00 +38°C° 0 mm 2 mps 716 mmHg 17%
    17:00 +35°C° 0 mm 1 mps 716 mmHg 19%
    18:00 +34°C° 0 mm 1 mps 716 mmHg 21%
    19:00 +33°C° 0 mm 1 mps 716 mmHg 22%
    20:00 +32°C° 0 mm 1 mps 717 mmHg 23%
    21:00 +31°C° 0 mm 1 mps 717 mmHg 25%
    22:00 +31°C° 0 mm 1 mps 717 mmHg 26%
    23:00 +30°C° 0 mm 1 mps 717 mmHg 27%

    Tomorrow, 19 January, Saturday

    Time Temperature Precipitation Wind Pressure Humidity
    00:00 +30°C° 0 mm 1 mps 717 mmHg 28%
    01:00 +29°C° 0 mm 1 mps 717 mmHg 29%
    02:00 +29°C° 0 mm 1 mps 716 mmHg 30%
    03:00 +29°C° 0 mm 1 mps 716 mmHg 31%
    04:00 +28°C° 0 mm 2 mps 716 mmHg 39%
    05:00 +28°C° 0 mm 2 mps 717 mmHg 48%
    06:00 +27°C° 0 mm 2 mps 717 mmHg 56%
    07:00 +29°C° 0 mm 3 mps 717 mmHg 54%
    08:00 +30°C° 0 mm 3 mps 718 mmHg 52%
    09:00 +32°C° 0 mm 4 mps 719 mmHg 51%
    10:00 +34°C° 0 mm 3 mps 718 mmHg 44%
    11:00 +36°C° 0 mm 3 mps 718 mmHg 37%
    12:00 +38°C° 0 mm 3 mps 718 mmHg 31%
    13:00 +38°C° 0 mm 2 mps 717 mmHg 29%
    14:00 +38°C° 0 mm 2 mps 716 mmHg 27%
    15:00 +37°C° 0 mm 1 mps 715 mmHg 25%
    16:00 +36°C° 0 mm 1 mps 716 mmHg 27%
    17:00 +35°C° 0 mm 1 mps 716 mmHg 29%
    18:00 +35°C° 0 mm 1 mps 716 mmHg 30%
    19:00 +34°C° 0 mm 1 mps 717 mmHg 33%
    20:00 +33°C° 0 mm 1 mps 717 mmHg 35%
    21:00 +32°C° 0 mm 1 mps 717 mmHg 37%
    22:00 +31°C° 0.1 mm 1 mps 717 mmHg 38%
    23:00 +31°C° 0.1 mm 1 mps 717 mmHg 40%

    Day after tomorrow, 20 January, Sunday

    Time Temperature Precipitation Wind Pressure Humidity
    00:00 +30°C° 0.1 mm 1 mps 717 mmHg 41%
    01:00 +30°C° 0.2 mm 1 mps 717 mmHg 44%
    02:00 +29°C° 0.2 mm 1 mps 717 mmHg 47%
    03:00 +29°C° 0.2 mm 1 mps 716 mmHg 50%
    04:00 +29°C° 0 mm 1 mps 717 mmHg 47%
    05:00 +29°C° 0 mm 1 mps 717 mmHg 44%
    06:00 +28°C° 0 mm 1 mps 718 mmHg 41%
    07:00 +29°C° 0 mm 1 mps 718 mmHg 34%
    08:00 +29°C° 0 mm 1 mps 719 mmHg 27%
    09:00 +30°C° 0 mm 1 mps 720 mmHg 20%
    10:00 +33°C° 0 mm 1 mps 720 mmHg 17%
    11:00 +34°C° 0 mm 0 mps 719 mmHg 14%
    12:00 +37°C° 0 mm 0 mps 719 mmHg 11%
    13:00 +40°C° 0 mm 1 mps 718 mmHg 12%
    14:00 +40°C° 0 mm 1 mps 717 mmHg 14%
    15:00 +39°C° 0 mm 1 mps 717 mmHg 15%
    16:00 +37°C° 0 mm 1 mps 717 mmHg 16%
    17:00 +35°C° 0 mm 1 mps 717 mmHg 17%
    18:00 +34°C° 0 mm 1 mps 717 mmHg 18%
    19:00 +33°C° 0 mm 1 mps 717 mmHg 19%
    20:00 +32°C° 0 mm 1 mps 718 mmHg 20%
    21:00 +30°C° 0 mm 1 mps 718 mmHg 20%
    22:00 +30°C° 0 mm 1 mps 718 mmHg 22%
    23:00 +29°C° 0 mm 1 mps 718 mmHg 23%

    21 January, Monday

    Time Temperature Precipitation Wind Pressure Humidity
    00:00 +28°C° 0 mm 1 mps 718 mmHg 24%
    01:00 +28°C° 0 mm 1 mps 717 mmHg 24%
    02:00 +27°C° 0 mm 1 mps 717 mmHg 24%
    03:00 +26°C° 0 mm 1 mps 717 mmHg 24%
    04:00 +26°C° 0 mm 1 mps 717 mmHg 23%
    05:00 +25°C° 0 mm 1 mps 717 mmHg 22%
    06:00 +25°C° 0 mm 1 mps 718 mmHg 21%
    07:00 +27°C° 0 mm 1 mps 718 mmHg 17%
    08:00 +29°C° 0 mm 1 mps 719 mmHg 14%
    09:00 +31°C° 0 mm 2 mps 720 mmHg 11%
    10:00 +35°C° 0 mm 2 mps 720 mmHg 10%
    11:00 +36°C° 0 mm 1 mps 719 mmHg 9%
    12:00 +39°C° 0 mm 1 mps 719 mmHg 9%
    13:00 +39°C° 0 mm 1 mps 718 mmHg 9%
    14:00 +39°C° 0 mm 2 mps 717 mmHg 9%
    15:00 +39°C° 0 mm 2 mps 716 mmHg 10%
    16:00 +38°C° 0 mm 2 mps 716 mmHg 11%
    17:00 +36°C° 0 mm 2 mps 716 mmHg 12%
    18:00 +33°C° 0 mm 1 mps 716 mmHg 13%
    19:00 +32°C° 0 mm 1 mps 717 mmHg 13%
    20:00 +31°C° 0 mm 1 mps 717 mmHg 14%
    21:00 +30°C° 0 mm 1 mps 718 mmHg 14%
    22:00 +29°C° 0 mm 1 mps 717 mmHg 14%
    23:00 +29°C° 0 mm 1 mps 717 mmHg 15%

    22 January, Tuesday

    Time Temperature Precipitation Wind Pressure Humidity
    00:00 +28°C° 0 mm 2 mps 717 mmHg 15%
    01:00 +27°C° 0 mm 2 mps 717 mmHg 15%
    02:00 +27°C° 0 mm 2 mps 716 mmHg 14%
    03:00 +26°C° 0 mm 2 mps 716 mmHg 14%
    04:00 +26°C° 0 mm 2 mps 716 mmHg 13%
    05:00 +26°C° 0 mm 2 mps 717 mmHg 11%
    06:00 +25°C° 0 mm 2 mps 717 mmHg 10%
    07:00 +27°C° 0 mm 2 mps 718 mmHg 9%
    08:00 +29°C° 0 mm 2 mps 719 mmHg 8%
    09:00 +31°C° 0 mm 2 mps 719 mmHg 6%
    10:00 +34°C° 0 mm 2 mps 719 mmHg 6%
    11:00 +36°C° 0 mm 2 mps 719 mmHg 6%
    12:00 +38°C° 0 mm 2 mps 719 mmHg 6%
    13:00 +39°C° 0 mm 2 mps 718 mmHg 6%
    14:00 +39°C° 0 mm 2 mps 717 mmHg 6%
    15:00 +39°C° 0 mm 2 mps 716 mmHg 6%
    16:00 +37°C° 0 mm 2 mps 716 mmHg 7%
    17:00 +36°C° 0 mm 2 mps 716 mmHg 8%
    18:00 +33°C° 0 mm 1 mps 716 mmHg 9%
    19:00 +32°C° 0 mm 1 mps 716 mmHg 9%
    20:00 +30°C° 0 mm 1 mps 717 mmHg 10%
    21:00 +29°C° 0 mm 1 mps 717 mmHg 11%
    22:00 +29°C° 0 mm 1 mps 717 mmHg 11%
    23:00 +28°C° 0 mm 2 mps 717 mmHg 11%

    23 January, Wednesday

    Time Temperature Precipitation Wind Pressure Humidity
    00:00 +27°C° 0 mm 2 mps 717 mmHg 12%
    01:00 +27°C° 0 mm 2 mps 716 mmHg 11%
    02:00 +26°C° 0 mm 2 mps 716 mmHg 11%
    03:00 +25°C° 0 mm 2 mps 716 mmHg 10%
    04:00 +25°C° 0 mm 2 mps 716 mmHg 10%
    05:00 +25°C° 0 mm 2 mps 716 mmHg 9%
    06:00 +25°C° 0 mm 2 mps 717 mmHg 8%
    07:00 +27°C° 0 mm 2 mps 717 mmHg 8%
    08:00 +29°C° 0 mm 2 mps 718 mmHg 7%
    09:00 +31°C° 0 mm 2 mps 719 mmHg 6%
    10:00 +35°C° 0 mm 2 mps 718 mmHg 6%
    11:00 +36°C° 0 mm 1 mps 718 mmHg 5%
    12:00 +39°C° 0 mm 1 mps 718 mmHg 5%
    13:00 +40°C° 0 mm 1 mps 717 mmHg 5%
    14:00 +40°C° 0 mm 1 mps 716 mmHg 5%
    15:00 +40°C° 0 mm 1 mps 716 mmHg 5%
    16:00 +37°C° 0 mm 1 mps 715 mmHg 6%
    17:00 +35°C° 0 mm 1 mps 715 mmHg 7%
    18:00 +33°C° 0 mm 1 mps 715 mmHg 8%
    19:00 +32°C° 0 mm 1 mps 716 mmHg 8%
    20:00 +30°C° 0 mm 1 mps 716 mmHg 8%
    21:00 +29°C° 0 mm 1 mps 716 mmHg 9%
    22:00 +28°C° 0 mm 1 mps 716 mmHg 9%
    23:00 +28°C° 0 mm 1 mps 716 mmHg 9%
    Show more